Погода в Костшине-на-Одре

Польша     52°35′35″N   14°39′53″E
темп.,
°C
ветер,
м/с
пор.,
м/с
влажн.,
%
обл.,
%
осадки,
мм/ч
давл.,
гПа
погр.,
м
17 августа, ср
ср1723:00+22ссв22562 0.0 101012
02:00+21ссз11625 0.0 101111
05:00+20с11685 0.0 101111
08:00+24с115460 0.0 1012167
11:00+30св21375 0.0 10121420
14:00+32вюв213098 0.0 10112607
17:00+31ююз2232100 0.0 10111240
20:00+27св234059 0.0 101058
18 августа, чт
чт1823:00+23всв355599 0.0 101174
02:00+22вюв226040 0.0 101124
05:00+21в226489 0.0 101030
08:00+25вюв3557100 0.0 1011263
11:00+31вюв4538100 0.0 10111000
14:00+34в432744 0.0 10103287
17:00+33в44265 0.0 10092037
20:00+27з5744100 0.1 1010246
19 августа, пт
пт1923:00+20с6118392 2.1 1011289
02:00+19с249099 2.5 1011122
05:00+19ссв119061 0.3 101018
08:00+21с118297 2.9 1010157
11:00+26с216432 1.9 1010459
14:00+30ссз3346100 1.9 10091471
17:00+28сз5754100 0.1 1009427
20:00+21с51388100 3.5 1009504
20 августа, сб
сб2023:00+20сз2693100 2.7 1010234
02:00+19сз5997100 3.9 1010330
05:00+19ссз41195100 0.8 1010491
08:00+19сз599266 1.6 1011485
11:00+22сз577893 0.4 1013867
14:00+21ссз4982100 2.3 1014589
17:00+24ссв2462100 0.1 1014732
20:00+21ссз1269100 0.3 101552
21 августа, вс
вс2123:00+18ссв368522 0.0 1016119
02:00+16св118565 0.0 101611
05:00+15з11811 0.0 101611
08:00+18юв116527 0.0 101697
11:00+24ююз124913 0.0 1016859
14:00+26зюз3440100 0.0 10152312
17:00+27зсз553191 0.0 10152404
20:00+22сз3442100 0.0 101672